Regional Weather Roundup
Issued by NWS

Home | Current Version | Previous Version | Text Only | Print | Product List | Glossary On
Versions: 1 2 3 4 5 6 7 8 9 10 11 12 13 14 15 16 17 18 19 20 21 22 23 24 25 26 27 28 29 30 31 32 33 34 35 36 37 38 39 40 41 42 43 44 45 46 47 48 49 50
000
ASUS43 KLMK 120002
RWRKY
KENTUCKY REGIONAL WEATHER ROUNDUP
NATIONAL WEATHER SERVICE LOUISVILLE KY
700 PM EST MON DEC 11 2017

NOTE "FAIR" INDICATES FEW OR NO CLOUDS BELOW 12,000 FEET
WITH NO SIGNIFICANT WEATHER AND/OR OBSTRUCTIONS TO VISIBILITY.

KYZ001>023-026-027-061>063-070>075-120100-
WESTERN AND SOUTH CENTRAL KENTUCKY

CITY           SKY/WX    TMP DP  RH WIND       PRES   REMARKS
PADUCAH        PTCLDY    59  30  33 W16       29.84R
HENDERSON      CLEAR     50  32  50 W17       29.82R
OWENSBORO      CLOUDY    47  32  56 W7        29.79R
HOPKINSVILLE   CLOUDY    55  28  35 SW13      29.81S
BOWLING GREEN  CLOUDY    53  32  44 SW7       29.82R
GLASGOW        NOT AVBL
$$

KYZ024-025-028>034-038-045-046-053-120100-
NORTH CENTRAL KENTUCKY

CITY           SKY/WX    TMP DP  RH WIND       PRES   REMARKS
LOUISVILLE/SDF CLOUDY    52  30  43 S10       29.74F
LOUISVILLE/LOU CLOUDY    50  31  48 S8        29.75F
FORT KNOX      PTCLDY    48  30  50 S8        29.74F
$$

KYZ035>037-039>044-047>052-055>060-089>105-120100-
NORTHEAST KENTUCKY

CITY           SKY/WX    TMP DP  RH WIND       PRES   REMARKS
LEXINGTON      PTCLDY    48  30  49 S14       29.76R
COVINGTON      CLOUDY    41  29  62 S7        29.70F
FRANKFORT      CLOUDY    45  28  51 S5        29.75R
$$

KYZ054-064>069-076>088-106>120-120100-
SOUTHEAST KENTUCKY

CITY           SKY/WX    TMP DP  RH WIND       PRES   REMARKS
JACKSON        PTCLDY    48  27  44 S8        29.78F
LONDON         PTCLDY    48  28  46 S7        29.81F
SOMERSET       NOT AVBL
MIDDLESBORO    CLEAR     46  31  54 S8        29.87F
MONTICELLO     PTCLDY    54  30  40 VRB7      29.82F
$$





USA.gov is the U.S. government's official web portal to all federal, state and local government web resources and services.